Regional Weather Roundup
Issued by NWS

Home | Current Version | Previous Version | Text Only | Print | Product List | Glossary On
Versions: 1 2 3 4 5 6 7 8 9 10 11 12 13 14 15 16 17 18 19 20 21 22 23 24 25 26 27 28 29 30 31 32 33 34 35 36 37 38 39 40 41 42 43 44 45 46 47 48 49 50
624
ASUS44 KFWD 290703
RWRTX
NORTH TEXAS HOURLY WEATHER ROUNDUP
NATIONAL WEATHER SERVICE FORT WORTH TX
200 AM CDT SUN MAY 29 2016

NOTE: "FAIR" INDICATES FEW OR NO CLOUDS BELOW 12,000 FEET WITH NO
SIGNIFICANT WEATHER AND/OR OBSTRUCTIONS TO VISIBILITY.

TXZ118-119-290800-
DALLAS/FORT WORTH METROPLEX

CITY           SKY/WX    TMP DP  RH WIND       PRES   REMARKS
DFW AIRPORT    CLOUDY    78  72  81 SE7       30.02F
DALLAS LOVE    CLOUDY    80  72  76 E3        30.03R
FTW MEACHAM    CLOUDY    79  72  79 E6        30.03R
DAL-EXECUTIVE  CLOUDY    76  72  87 E5        30.03S
FTW-ALLIANCE   CLOUDY    78  72  81 SE7       30.02S
FTW-NAS-JRB    CLOUDY    79  72  79 E5        30.03S
FTW-SPINKS     MOCLDY    76  73  90 SE5       30.04R FOG
ARLINGTON      CLOUDY    79  72  79 SE5       30.03S
GRAND PRAIRIE  CLOUDY    77  71  81 E3        30.04S
ADDISON        CLOUDY    79  74  84 E7        30.06S
MESQUITE       CLOUDY    74  73  96 CALM      30.04R
LANCASTER      CLOUDY    74  71  91 CALM      30.04S
$$

TXZ091>094-102>105-117-120-121-131>134-290800-
NORTH CENTRAL TEXAS

CITY           SKY/WX    TMP DP  RH WIND       PRES   REMARKS
SHRMAN/DENISON CLOUDY    72  66  82 S8        30.04F
BRIDGEPORT     CLOUDY    76  74  93 CALM      30.05S
DECATUR        CLOUDY    76  73  91 E6        30.06F
DENTON         TSTM      77  73  87 NE6       30.04R
MCKINNEY       LGT RAIN  75  73  93 SE7       30.06R
ROCKWALL       CLOUDY    75  73  96 E3        30.05R
TERRELL        CLOUDY    75  73  93 CALM      30.05R
WAXAHACHIE     CLOUDY    75  74  99 SE3       30.04S
CLEBURNE       CLOUDY    77  75  94 SE16G24   30.03S
GRANBURY       CLOUDY    79  73  82 E5        30.02R
$$

TXZ083>090-098>101-113>116-127>130-139>142-154-155-290800-
WESTERN NORTH TEXAS

CITY           SKY/WX    TMP DP  RH WIND       PRES   REMARKS
WICHITA FALLS  CLOUDY    66  62  87 S8        30.00F
WF-KICKAPOO    CLOUDY    69  61  74 SE5       30.02S
VERNON         CLOUDY    71  58  63 S5        30.02R
ABILENE        TSTM      64  61  90 N26G35    30.10R
MINERAL WELLS  CLOUDY    77  73  87 E6        30.03R
STEPHENVILLE   CLOUDY    76  70  81 SE7       30.04R
COMANCHE       CLOUDY    74  74 100 SE8       30.01R
BROWNWOOD      CLOUDY    75  68  78 E5        30.01R
COLEMAN        MOCLDY    74  67  78 E6        30.02R
$$

TXZ143>147-156>162-174-175-290800-
CENTRAL TEXAS

CITY           SKY/WX    TMP DP  RH WIND       PRES   REMARKS
WACO           CLOUDY    77  71  82 SE8       30.01R
WACO-MCGREGOR  CLOUDY   N/A N/A N/A SE9         N/A
HILLSBORO      CLOUDY    75  71  88 SE7       30.02S
CORSICANA      CLOUDY    79  72  79 S3        30.04S
MEXIA          CLOUDY    73  73  98 S7        30.02F
HEARNE         CLOUDY    75  72  88 CALM      30.02F
CAMERON        CLOUDY    77  72  85 S15G21    30.01S
TEMPLE         CLOUDY    75  72  90 SE8       30.01R
KILLEEN        CLOUDY    75  72  91 SE15      30.00R
KILLEEN-SKYLRK CLOUDY    76  72  87 S12       30.01R
FORT HOOD      CLOUDY    74  73  96 S10       30.00R
HAMILTON       CLOUDY    75  75 100 E10       30.02R
$$

TXZ095>097-106>112-122>126-135>138-148>153-164>167-290800-
EAST TEXAS

CITY           SKY/WX    TMP DP  RH WIND       PRES   REMARKS
PARIS          CLOUDY    70  63  78 CALM      30.06R
SULPHUR SPRNGS CLOUDY    72  71  97 CALM      30.07R FOG
MOUNT PLEASANT CLOUDY    70  70 100 N5        30.05S
MINEOLA        CLOUDY    72  72 100 CALM      30.05R FOG
TYLER          CLOUDY    75  70  84 S6        30.04R
LONGVIEW       CLOUDY    72  71  97 S6        30.03R
MARSHALL       MOCLDY    70  68  93 CALM      30.06R
ATHENS         PTCLDY    73  73 100 CALM      30.03R
PALESTINE      MOCLDY    74  72  93 SE3       30.05R
JACKSONVILLE   PTCLDY    73  70  91 S6        30.08R
CENTER         FAIR      71  69  95 CALM      30.04R
NACOGDOCHES    CLEAR     70  68  94 CALM      30.05R
LUFKIN         CLEAR     69  68  96 CALM      30.04R
$$

SUPPLEMENTAL OBSERVATIONS (CENTRAL)

CITY           SKY/WX    TMP DP  RH WIND       PRES   REMARKS
$$

SUPPLEMENTAL OBSERVATIONS (WEST)

CITY           SKY/WX    TMP DP  RH WIND       PRES   REMARKS
$$

SUPPLEMENTAL OBSERVATIONS (EAST)

CITY           SKY/WX    TMP DP  RH WIND       PRES   REMARKS
$$

SUPPLEMENTAL OBSERVATIONS ARE A COLLECTION OF AUTOMATED INSTRUMENTS
THAT ARE MAINTAINED BY A VARIETY OF FEDERAL AND STATE AGENCIES.
CERTAIN ELEMENTS...SUCH AS HUMIDITY VALUES AND SUSTAINED WIND
SPEEDS...MAY BE APPROXIMATED.





USA.gov is the U.S. government's official web portal to all federal, state and local government web resources and services.